User: anonymous   Login
Location: Les Gen�tes
(46.3104°N, 1.5969°E)
Time: 13:54:21
(UTC+00:00)
Language:

ISS - Orbit

View from above orbital plane
View from above orbital plane
View from above satellite
View from above satellite

Ground track
Ground track

The orbit data is extracted from the following two-line orbital elements,

1 25544U 98067A   20220.16810910  .00016717  00000-0  10270-3 0  9043
2 25544  51.6416  96.1558 0001126  12.1280 347.9897 15.49119782 39919
Epoch (UTC): 07 August 2020 04:02:04
Eccentricity: 0.0001126
inclination: 51.6416°
perigee height: 418 km
apogee height: 420 km
right ascension of ascending node: 96.1558°
argument of perigee: 12.1280°
revolutions per day: 15.49119782
mean anomaly at epoch: 347.9897°
orbit number at epoch: 3991

The dashed part of the orbit path shows where the satellite is in the earth's shadow,  

DLR